• Processing (Info)

  • MPEC 2003-A75 : S/2002 N 1, 2002 N 2, 2002 N3

    The following Minor Planet Electronic Circular may be linked-to from your own Web pages, but must not otherwise be redistributed electronically.

    A form allowing access to any MPEC is at the bottom of this page.


    Read MPEC 2003-A74 Read MPEC 2003-A76


    M.P.E.C. 2003-A75                                Issued 2003 Jan. 13, 17:00 UT
    
         The Minor Planet Electronic Circulars contain information on unusual
             minor planets and routine data on comets.  They are published
       on behalf of Commission 20 of the International Astronomical Union by the
              Minor Planet Center, Smithsonian Astrophysical Observatory,
                              Cambridge, MA 02138, U.S.A.
    
                 Prepared using the Tamkin Foundation Computer Network
    
                                  MPC@CFA.HARVARD.EDU
              URL http://cfa-www.harvard.edu/iau/mpc.html  ISSN 1523-6714
    
                             S/2002 N 1, 2002 N 2, 2002 N3
    
    Observations:
        SK02N010  C2001 08 10.02379 20 38 00.22 -18 13 24.5          24.2 R      807
        SK02N010  C2001 08 10.11901 20 37 59.62 -18 13 27.1          24.2 R      807
        SK02N010  C2001 08 10.21688 20 37 58.99 -18 13 29.6          24.2 R      807
        SK02N010  C2002 08 14.00655 20 47 08.20 -18 00 12.0          24.6 R      807
        SK02N010  C2002 08 14.13779 20 47 07.31 -18 00 15.6                      807
        SK02N010  C2002 08 14.19312 20 47 06.96 -18 00 17.2                      807
        SK02N010  C2002 08 16.03731 20 46 54.98 -18 01 09.8                      807
        SK02N010  C2002 08 16.12087 20 46 54.42 -18 01 12.2          24.3 R      807
        SK02N010  C2002 08 16.18696 20 46 54.00 -18 01 13.9                      807
        SK02N010  C2002 09 03.05508 20 45 06.19 -18 08 58.1                      309
        SK02N010  C2002 09 03.06052 20 45 06.16 -18 08 58.2          24.0 R      309
        SK02N010  C2002 09 03.06594 20 45 06.12 -18 08 58.4          24.3 R      309
        SK02N010  C2002 09 03.15553 20 45 05.62 -18 09 00.4          23.8 R      309
        SK02N010  C2002 09 03.16097 20 45 05.59 -18 09 00.6          23.9 R      309
        SK02N010  C2002 09 03.16641 20 45 05.56 -18 09 00.7          23.9 N      309
        SK02N010  C2002 09 04.01802 20 45 00.94 -18 09 20.7                      309
        SK02N010  C2002 09 04.03667 20 45 00.84 -18 09 21.0                      309
        SK02N020  C2001 07 23.39411 20 38 28.68 -18 14 52.9                      568
        SK02N020  C2001 07 23.46403 20 38 28.20 -18 14 54.9          25.3 R      568
        SK02N020  C2001 07 23.55187 20 38 27.64 -18 14 56.9                      568
        SK02N020  C2002 08 14.01345 20 45 43.12 -18 02 55.9                      807
        SK02N020  C2002 08 14.10409 20 45 42.55 -18 02 58.2          25.2 R      807
        SK02N020  C2002 08 14.17147 20 45 42.14 -18 03 00.3                      807
        SK02N020  C2002 08 15.99705 20 45 30.72 -18 03 49.0                      807
        SK02N020  C2002 08 16.08557 20 45 30.19 -18 03 51.3          25.2 R      807
        SK02N020  C2002 08 16.16647 20 45 29.69 -18 03 53.5                      807
        SK02N020  C2002 09 03.03204 20 43 46.07 -18 11 13.3          25.3 R      309
        SK02N020  C2002 09 03.03748 20 43 46.04 -18 11 13.4          25.4 R      309
        SK02N020  C2002 09 03.04835 20 43 45.97 -18 11 13.5          25.6 R      309
        SK02N020  C2002 09 03.13244 20 43 45.53 -18 11 15.2          25.7 R      309
        SK02N020  C2002 09 03.13788 20 43 45.49 -18 11 15.7          25.3 R      309
        SK02N020  C2002 09 03.14331 20 43 45.47 -18 11 15.6          25.5 R      309
        SK02N020  C2002 09 03.14873 20 43 45.44 -18 11 15.8          25.4 R      309
        SK02N020  C2002 09 05.07780 20 43 35.49 -18 11 58.2                      309
        SK02N020  C2002 09 05.08392 20 43 35.45 -18 11 58.7                      309
        SK02N020  C2002 09 05.09005 20 43 35.42 -18 11 58.8                      309
        SK02N020  C2002 09 05.09616 20 43 35.40 -18 11 59.0                      309
        SK02N020  C2002 09 05.10230 20 43 35.37 -18 11 58.9                      309
        SK02N020  C2002 09 05.11457 20 43 35.30 -18 11 58.9                      309
        SK02N020  C2002 09 05.12069 20 43 35.30 -18 11 58.9                      309
        SK02N030  C2001 08 11.05005 20 39 20.34 -18 23 04.1          25.4 R      807
        SK02N030  C2001 08 11.08372 20 39 20.13 -18 23 04.9          25.4 R      807
        SK02N030  C2001 08 11.17850 20 39 19.51 -18 23 07.2          25.4 R      807
        SK02N030  C2002 08 13.01769 20 48 05.02 -17 47 11.2                      807
        SK02N030  C2002 08 13.07746 20 48 04.64 -17 47 12.8                      807
        SK02N030  C2002 08 13.09404 20 48 04.53 -17 47 13.2          24.5 R      807
        SK02N030  C2002 08 15.04597 20 47 51.80 -17 48 01.8                      807
        SK02N030  C2002 08 15.12053 20 47 51.31 -17 48 03.8                      807
        SK02N030  C2002 08 15.21912 20 47 50.67 -17 48 06.3          24.5 R      807
        SK02N030  C2002 09 03.07293 20 45 56.53 -17 55 27.7          24.9 R      309
        SK02N030  C2002 09 03.07836 20 45 56.51 -17 55 27.7          24.9 R      309
        SK02N030  C2002 09 03.08380 20 45 56.47 -17 55 27.8          24.7 R      309
        SK02N030  C2002 09 03.17319 20 45 55.97 -17 55 29.5          25.2 R      309
        SK02N030  C2002 09 03.17862 20 45 55.94 -17 55 29.8          25.0 R      309
        SK02N030  C2002 09 03.18406 20 45 55.91 -17 55 30.0          25.2 R      309
        SK02N030  C2002 09 04.99983 20 45 46.11 -17 56 07.8                      309
        SK02N030  C2002 09 05.06871 20 45 45.75 -17 56 09.2                      309
    
    Observer details:
    309 Cerro Paranal.  Observers J.-M. Petit, P. Rousselot, O. Mousis.
        Measurer B. Gladman.  ESO 8.2-m UT3 Telescope + CCD.
    568 Mauna Kea.  Observer J. Kavelaars.  Measurer M. Holman.  3.6-m
        Canada-France-Hawaii telescope + CCD.
    807 Cerro Tololo.  Observers M. Holman, J. Kavelaars.  Measurers M. Holman,
        J. Kavelaars, T. Grav, W. Fraser, D. Milisavljevic.  4-m Blanco reflector
        + CCD.
    
    Orbital elements:
    S/2002 N 1
    Epoch 2002 Nov. 22.0 TT = JDT 2452600.5                 MPC
    M  39.23980              (2000.0)            P               Q
    n   0.12551296     Peri.  179.13011     +0.65157026     +0.39240467
    a   0.1470004      Node   228.89412     +0.69068448     +0.04703637
    e   0.4317281      Incl.  120.50347     +0.31370551     -0.91858922
    P   7.85           H    9.7           P/d  2868.23
    Residuals in seconds of arc
    K018A  807  0.1-  0.0     K028G  807  0.0   0.4-    K0293  309  0.0   0.1+
    K018A  807  0.1+  0.0     K028G  807  0.2-  0.5-    K0293  309  0.0   0.0
    K018A  807  0.0   0.1+    K028G  807  0.0   0.3-    K0293  309  0.0   0.0
    K028E  807  0.2+  0.3+    K0293  309  0.1+  0.0     K0294  309  0.0   0.0
    K028E  807  0.1-  0.4+    K0293  309  0.1+  0.0     K0294  309  0.0   0.1+
    K028E  807  0.1+  0.4+    K0293  309  0.1-  0.1-
    
    S/2002 N 2
    Eccentricity assumed
    Epoch 2002 Nov. 22.0 TT = JDT 2452600.5                 MPC
    M 191.17050              (2000.0)            P               Q
    n   0.14308668     Peri.   27.07148     +0.22000553     -0.64695271
    a   0.1347032      Node    60.63766     +0.67216766     -0.44186679
    e   0.1728137      Incl.   56.90003     +0.70695700     +0.62145468
    P   6.89           H   11.0           P/d  2515.96
    Residuals in seconds of arc
    K017N  568  0.0   0.0     K028G  807  1.0+  0.4-    K0295  309  0.2-  0.2+
    K017N  568  0.2-  0.1-    K0293  309  0.1+  0.1+    K0295  309  0.4-  0.2-
    K017N  568  0.2+  0.2+    K0293  309  0.0   0.1+    K0295  309  0.3-  0.1-
    K028E  807  0.4-  0.2-    K0293  309  0.1-  0.2+    K0295  309  0.2-  0.2-
    K028E  807  0.3-  0.1-    K0293  309  0.0   0.4+    K0295  309  0.1-  0.0
    K028E  807  0.1+  0.3-    K0293  309  0.1-  0.0     K0295  309  0.2-  0.3+
    K028F  807  0.3+  0.4-    K0293  309  0.0   0.2+    K0295  309  0.2+  0.4+
    K028G  807  0.8+  0.3-    K0293  309  0.0   0.2+
    
    S/2002 N 3
    Eccentricity assumed
    Epoch 2002 Nov. 22.0 TT = JDT 2452600.5                 MPC
    M 269.57627              (2000.0)            P               Q
    n   0.13106531     Peri.  144.58207     -0.82714245     +0.14046284
    a   0.1428189      Node    53.65304     -0.52563380     -0.53597321
    e   0.4726309      Incl.   42.50063     +0.19885794     -0.83246796
    P   7.52           H   10.6           P/d  2746.72
    Residuals in seconds of arc
    K018B  807  0.1-  0.0     K028F  807  0.1-  0.8+    K0293  309  0.0   0.0
    K018B  807  0.0   0.0     K028F  807  0.0   0.7+    K0293  309  0.0   0.2-
    K018B  807  0.1+  0.0     K028F  807  0.1+  0.7+    K0293  309  0.0   0.3-
    K028D  807  0.4-  0.0     K0293  309  0.0   0.3-    K0294  309  0.0   0.4-
    K028D  807  0.1-  0.1-    K0293  309  0.2+  0.2-    K0295  309  0.2+  0.4-
    K028D  807  0.1-  0.1-    K0293  309  0.0   0.2-
    
